Forside
METAR-TAF:

METAR-TAF

Lufthavne :

Macomb Municipal Airport

Macomb, Illinois, USA

Breddekreds: 40-31-13N, længdekreds: 090-39-09W, højde: 216 m

Aktuelle vejr

Denne rapport blev lavet for 23 minutter siden, kl. 17:15 UTC
Vind 14 kt fra sydøst
Temperatur -12°C
Fugtighed 78%
Tryk 1032 hPa
Sigt: 16.1 km
Brudte skyer i en højde af 10000 ft

METAR: KMQB 211715Z AUTO 14014KT 10SM BKN100 M12/M15 A3047 RMK AO2 T11201155

Tid: 11:38 (17:38 UTC)


TAF: fraværende

Vejrobservationer og prognoser fra mere end 4000 lufthavne (METAR og TAF).

De gule og røde prikker repræsenterer de meteorologiske stationer.

Flyt musen over at se navnet på stationen.

Så klik over at se vejr observationer og prognoser.

At skifte det kort: Klik på de grønne knapper med et sort kors for at zoome ind; på den grønne knap med en bindestreg for at zoome ud; eller på de grønne pile for tilstødende kort.


METAR-TAF: